This is the latest recevied weather packets stored in our database for station/object IU2GZQ-13. If no packets are shown the sender has not sent any weather packets the latest 10 day(s).
| Time | Temp. | Humidity | Pressure | Rain* | Wind** | Luminosity | Snow |
|---|---|---|---|---|---|---|---|
| 1778188217 | 15.56° C | 74% | 1015.1 hPa | 0 mm | - | - | - |
| 1778187654 | 15.56° C | 73% | 1015 hPa | 0 mm | - | - | - |
| 1778187031 | 15.56° C | 73% | 1015 hPa | 0 mm | - | - | - |
| 1778186428 | 15.56° C | 73% | 1015 hPa | 0 mm | - | - | - |
| 1778185826 | 15.56° C | 74% | 1015 hPa | 0 mm | - | - | - |
| 1778185323 | 16.11° C | 73% | 1014.8 hPa | 0 mm | - | - | - |
| 1778184661 | 16.11° C | 72% | 1014.8 hPa | 0 mm | - | - | - |
| 1778184018 | 16.11° C | 72% | 1014.6 hPa | 0 mm | - | - | - |
| 1778183434 | 16.11° C | 71% | 1014.6 hPa | 0 mm | - | - | - |
| 1778182891 | 16.67° C | 71% | 1014.5 hPa | 0 mm | - | - | - |
| 1778182228 | 16.67° C | 69% | 1014.4 hPa | 0 mm | - | - | - |
| 1778181725 | 17.22° C | 65% | 1014.3 hPa | 0 mm | - | - | - |
| 1778181042 | 18.33° C | 64% | 1014.1 hPa | 0 mm | - | - | - |
| 1778180439 | 18.89° C | 62% | 1014.3 hPa | 0 mm | - | - | - |
| 1778179936 | 19.44° C | 56% | 1014.2 hPa | 0 mm | - | - | - |
| 1778179233 | 19.44° C | 55% | 1013.9 hPa | 0 mm | - | - | - |
| 1778178651 | 19.44° C | 55% | 1013.9 hPa | 0 mm | - | - | - |
| 1778178047 | 20° C | 54% | 1013.7 hPa | 0 mm | - | - | - |
| 1778177483 | 20.56° C | 53% | 1013.5 hPa | 0 mm | - | - | - |
| 1778176840 | 20.56° C | 52% | 1013.5 hPa | 0 mm | - | - | - |
| 1778176235 | 21.11° C | 51% | 1013.4 hPa | 0 mm | - | - | - |
| 1778175633 | 21.11° C | 51% | 1013.3 hPa | 0 mm | - | - | - |
| 1778175070 | 21.67° C | 49% | 1013.2 hPa | 0 mm | - | - | - |
| 1778174427 | 22.22° C | 50% | 1013.2 hPa | 0 mm | - | - | - |
| 1778173824 | 22.22° C | 49% | 1013 hPa | 0 mm | - | - | - |
* Rain latest hour (hover to see other rain measurements)
** Current wind speed in m/s (hover to see current wind gust speed)